Time,TemperatureF,DewpointF,PressureIn,WindDirection,WindDirectionDegrees,WindSpeedMPH,WindSpeedGustMPH,Humidity,HourlyPrecipIn,Conditions,Clouds,dailyrainin,SoftwareType,DateUTC
2013-01-25 00:00:00,57.5,48.9,30.15,SE,138,0.0,1.0,73,0.00,,SKC,0.05,VWS V14.01,2013-01-25 07:00:00,
2013-01-25 00:05:00,57.3,49.1,30.15,SE,140,1.0,4.0,74,0.00,,SKC,0.00,VWS V14.01,2013-01-25 07:05:00,
2013-01-25 00:10:00,57.1,48.9,30.14,SE,138,0.0,4.0,74,0.00,,SKC,0.00,VWS V14.01,2013-01-25 07:10:00,
2013-01-25 00:15:00,56.9,48.7,30.14,SE,138,0.0,4.0,74,0.00,,SKC,0.00,VWS V14.01,2013-01-25 07:15:00,
2013-01-25 00:20:00,56.9,49.1,30.14,SE,140,0.0,0.0,75,0.00,,SKC,0.00,VWS V14.01,2013-01-25 07:20:00,
2013-01-25 00:25:00,56.7,48.9,30.14,SE,138,0.0,0.0,75,0.00,,SKC,0.00,VWS V14.01,2013-01-25 07:25:00,
2013-01-25 00:30:00,56.4,48.9,30.14,SE,139,0.0,0.0,76,0.00,,SKC,0.00,VWS V14.01,2013-01-25 07:30:00,
2013-01-25 00:35:00,56.3,48.8,30.14,SE,139,0.0,0.0,76,0.00,,SKC,0.00,VWS V14.01,2013-01-25 07:35:00,
2013-01-25 00:40:00,56.1,49.0,30.14,SE,138,0.0,2.0,77,0.00,,SKC,0.00,VWS V14.01,2013-01-25 07:40:00,
2013-01-25 00:45:00,55.9,48.8,30.14,SE,139,0.0,2.0,77,0.00,,SKC,0.00,VWS V14.01,2013-01-25 07:45:00,
2013-01-25 00:51:00,55.8,48.7,30.13,SE,138,0.0,0.0,77,0.00,,SKC,0.00,VWS V14.01,2013-01-25 07:51:00,
2013-01-25 00:56:00,55.7,49.0,30.13,SE,138,0.0,0.0,78,0.00,,SKC,0.00,VWS V14.01,2013-01-25 07:56:00,
2013-01-25 01:00:00,55.7,48.6,30.13,SE,139,0.0,2.0,77,0.00,,SKC,0.00,VWS V14.01,2013-01-25 08:00:00,
2013-01-25 01:01:00,55.7,49.0,30.13,SE,139,0.0,0.0,78,0.00,,SKC,0.00,VWS V14.01,2013-01-25 08:01:00,
2013-01-25 01:06:00,55.8,48.4,30.12,SE,138,2.0,3.0,76,0.00,,SKC,0.00,VWS V14.01,2013-01-25 08:06:00,
2013-01-25 01:11:00,56.2,48.4,30.12,SE,140,0.0,3.0,75,0.00,,SKC,0.00,VWS V14.01,2013-01-25 08:11:00,
2013-01-25 01:15:00,56.6,48.4,30.12,SE,138,0.0,3.0,74,0.00,,SKC,0.00,VWS V14.01,2013-01-25 08:15:00,
2013-01-25 01:16:00,56.6,48.4,30.12,SE,139,0.0,3.0,74,0.00,,SKC,0.00,VWS V14.01,2013-01-25 08:16:00,
2013-01-25 01:21:00,56.7,48.5,30.12,SE,139,3.0,3.0,74,0.00,,SKC,0.00,VWS V14.01,2013-01-25 08:21:00,
2013-01-25 01:26:00,56.7,48.5,30.12,SE,140,0.0,4.0,74,0.00,,SKC,0.00,VWS V14.01,2013-01-25 08:26:00,
2013-01-25 01:30:00,56.7,48.2,30.12,SE,140,1.0,4.0,73,0.00,,SKC,0.00,VWS V14.01,2013-01-25 08:30:00,
2013-01-25 01:31:00,56.7,48.2,30.13,SE,140,2.0,4.0,73,0.00,,SKC,0.00,VWS V14.01,2013-01-25 08:31:00,
2013-01-25 01:36:00,56.9,48.3,30.13,SSE,147,0.0,4.0,73,0.00,,SKC,0.00,VWS V14.01,2013-01-25 08:36:00,
2013-01-25 01:41:00,56.9,48.3,30.13,SSE,147,0.0,4.0,73,0.00,,SKC,0.00,VWS V14.01,2013-01-25 08:41:00,
2013-01-25 01:45:00,56.8,48.2,30.13,SE,146,0.0,4.0,73,0.00,,SKC,0.00,VWS V14.01,2013-01-25 08:45:00,
2013-01-25 01:47:00,56.8,48.2,30.13,SSE,147,0.0,4.0,73,0.00,,SKC,0.00,VWS V14.01,2013-01-25 08:47:00,
2013-01-25 01:52:00,56.7,48.2,30.12,SSE,147,0.0,0.0,73,0.00,,SKC,0.00,VWS V14.01,2013-01-25 08:52:00,
2013-01-25 01:57:00,56.5,48.3,30.12,SE,146,0.0,3.0,74,0.00,,SKC,0.00,VWS V14.01,2013-01-25 08:57:00,
2013-01-25 02:00:00,56.3,48.1,30.13,SSE,147,0.0,3.0,74,0.00,,SKC,0.00,VWS V14.01,2013-01-25 09:00:00,
2013-01-25 02:02:00,56.3,48.1,30.13,SSE,147,0.0,3.0,74,0.00,,SKC,0.00,VWS V14.01,2013-01-25 09:02:00,
2013-01-25 02:07:00,56.1,47.9,30.12,SE,146,0.0,0.0,74,0.00,,SKC,0.00,VWS V14.01,2013-01-25 09:07:00,
2013-01-25 02:12:00,55.9,48.1,30.12,SE,146,0.0,0.0,75,0.00,,SKC,0.00,VWS V14.01,2013-01-25 09:12:00,
2013-01-25 02:15:00,55.7,48.3,30.12,SSE,147,0.0,0.0,76,0.00,,SKC,0.00,VWS V14.01,2013-01-25 09:15:00,
2013-01-25 02:17:00,55.7,48.3,30.12,SE,146,0.0,0.0,76,0.00,,SKC,0.00,VWS V14.01,2013-01-25 09:17:00,
2013-01-25 02:22:00,55.5,48.1,30.12,SSE,147,0.0,2.0,76,0.00,,SKC,0.00,VWS V14.01,2013-01-25 09:22:00,
2013-01-25 02:27:00,55.5,48.1,30.12,SE,146,1.0,2.0,76,0.00,,SKC,0.00,VWS V14.01,2013-01-25 09:27:00,
2013-01-25 02:30:00,55.5,48.1,30.12,SSE,147,0.0,2.0,76,0.00,,SKC,0.00,VWS V14.01,2013-01-25 09:30:00,
2013-01-25 02:32:00,55.5,48.1,30.12,SSE,147,0.0,0.0,76,0.00,,SKC,0.00,VWS V14.01,2013-01-25 09:32:00,
2013-01-25 02:37:00,55.6,47.8,30.11,SSE,147,0.0,0.0,75,0.00,,SKC,0.00,VWS V14.01,2013-01-25 09:37:00,
2013-01-25 02:42:00,55.9,47.4,30.11,SE,146,1.0,1.0,73,0.00,,SKC,0.00,VWS V14.01,2013-01-25 09:42:00,
2013-01-25 02:45:00,56.3,47.0,30.10,SE,143,0.0,2.0,71,0.00,,SKC,0.00,VWS V14.01,2013-01-25 09:45:00,
2013-01-25 02:47:00,56.4,47.1,30.10,SE,142,0.0,0.0,71,0.00,,SKC,0.00,VWS V14.01,2013-01-25 09:47:00,
2013-01-25 02:52:00,56.9,46.8,30.10,SE,142,0.0,2.0,69,0.00,,SKC,0.00,VWS V14.01,2013-01-25 09:52:00,
2013-01-25 02:57:00,57.6,46.7,30.10,SE,136,0.0,3.0,67,0.00,,SKC,0.00,VWS V14.01,2013-01-25 09:57:00,
2013-01-25 03:00:00,58.3,46.6,30.10,SE,136,4.0,4.0,65,0.00,,SKC,0.00,VWS V14.01,2013-01-25 10:00:00,
2013-01-25 03:03:00,58.3,46.6,30.10,SE,136,1.0,4.0,65,0.00,,SKC,0.00,VWS V14.01,2013-01-25 10:03:00,
2013-01-25 03:08:00,59.0,46.4,30.10,SE,140,0.0,4.0,63,0.00,,SKC,0.00,VWS V14.01,2013-01-25 10:08:00,
2013-01-25 03:13:00,59.3,46.3,30.10,SE,146,4.0,5.0,62,0.00,,SKC,0.00,VWS V14.01,2013-01-25 10:13:00,
2013-01-25 03:15:00,59.4,46.4,30.10,SSE,147,0.0,5.0,62,0.00,,SKC,0.00,VWS V14.01,2013-01-25 10:15:00,
2013-01-25 03:18:00,59.4,46.4,30.10,SSE,151,3.0,3.0,62,0.00,,SKC,0.00,VWS V14.01,2013-01-25 10:18:00,
2013-01-25 03:23:00,59.2,46.6,30.10,SSE,163,0.0,4.0,63,0.00,,SKC,0.00,VWS V14.01,2013-01-25 10:23:00,
2013-01-25 03:28:00,58.8,46.7,30.10,SSE,164,3.0,5.0,64,0.00,,SKC,0.00,VWS V14.01,2013-01-25 10:28:00,
2013-01-25 03:30:00,58.3,47.0,30.10,SSE,164,0.0,5.0,66,0.00,,SKC,0.00,VWS V14.01,2013-01-25 10:30:00,
2013-01-25 03:33:00,58.2,46.9,30.11,SSE,165,0.0,3.0,66,0.00,,SKC,0.00,VWS V14.01,2013-01-25 10:33:00,
2013-01-25 03:38:00,57.5,47.0,30.11,SSE,148,3.0,5.0,68,0.00,,SKC,0.00,VWS V14.01,2013-01-25 10:38:00,
2013-01-25 03:43:00,56.9,47.2,30.11,SSE,167,1.0,5.0,70,0.00,,SKC,0.00,VWS V14.01,2013-01-25 10:43:00,
2013-01-25 03:45:00,56.1,47.2,30.11,South,177,4.0,5.0,72,0.00,,SKC,0.00,VWS V14.01,2013-01-25 10:45:00,
2013-01-25 03:48:00,56.0,47.5,30.11,SSE,167,0.0,4.0,73,0.00,,SKC,0.00,VWS V14.01,2013-01-25 10:48:00,
2013-01-25 03:53:00,55.5,47.4,30.10,SSE,153,3.0,5.0,74,0.00,,SKC,0.00,VWS V14.01,2013-01-25 10:53:00,
2013-01-25 03:58:00,55.4,47.3,30.10,SSE,154,4.0,5.0,74,0.00,,SKC,0.00,VWS V14.01,2013-01-25 10:58:00,
2013-01-25 04:00:00,55.4,47.3,30.10,SE,142,1.0,5.0,74,0.00,,SKC,0.00,VWS V14.01,2013-01-25 11:00:00,
2013-01-25 04:04:00,55.5,47.4,30.10,SSE,148,0.0,4.0,74,0.00,,SKC,0.00,VWS V14.01,2013-01-25 11:04:00,
2013-01-25 04:08:00,55.6,47.1,30.10,SE,138,2.0,5.0,73,0.00,,SKC,0.00,VWS V14.01,2013-01-25 11:08:00,
2013-01-25 04:14:00,55.8,47.3,30.10,SE,142,0.0,5.0,73,0.00,,SKC,0.00,VWS V14.01,2013-01-25 11:14:00,
2013-01-25 04:15:00,55.9,47.0,30.10,SE,140,4.0,5.0,72,0.00,,SKC,0.00,VWS V14.01,2013-01-25 11:15:00,
2013-01-25 04:19:00,56.0,47.1,30.10,SE,140,3.0,4.0,72,0.00,,SKC,0.00,VWS V14.01,2013-01-25 11:19:00,
2013-01-25 04:24:00,56.3,47.0,30.09,SE,139,0.0,4.0,71,0.00,,SKC,0.00,VWS V14.01,2013-01-25 11:24:00,
2013-01-25 04:29:00,56.5,46.8,30.09,SE,139,0.0,4.0,70,0.00,,SKC,0.00,VWS V14.01,2013-01-25 11:29:00,
2013-01-25 04:30:00,56.7,46.7,30.09,SE,139,0.0,4.0,69,0.00,,SKC,0.00,VWS V14.01,2013-01-25 11:30:00,
2013-01-25 04:34:00,56.8,46.8,30.09,SE,139,0.0,0.0,69,0.00,,SKC,0.00,VWS V14.01,2013-01-25 11:34:00,
2013-01-25 04:39:00,57.0,46.6,30.09,SE,129,0.0,3.0,68,0.00,,SKC,0.00,VWS V14.01,2013-01-25 11:39:00,
2013-01-25 04:44:00,57.1,46.7,30.08,SE,128,0.0,4.0,68,0.00,,SKC,0.00,VWS V14.01,2013-01-25 11:44:00,
2013-01-25 04:45:00,57.2,46.4,30.08,SE,128,0.0,4.0,67,0.00,,SKC,0.00,VWS V14.01,2013-01-25 11:45:00,
2013-01-25 04:49:00,57.3,46.5,30.08,SE,128,0.0,0.0,67,0.00,,SKC,0.00,VWS V14.01,2013-01-25 11:49:00,
2013-01-25 04:54:00,57.5,46.2,30.08,SE,128,0.0,0.0,66,0.00,,SKC,0.00,VWS V14.01,2013-01-25 11:54:00,
2013-01-25 04:59:00,57.6,46.3,30.08,SE,127,0.0,2.0,66,0.00,,SKC,0.00,VWS V14.01,2013-01-25 11:59:00,
2013-01-25 05:00:00,57.7,46.4,30.08,SE,128,3.0,3.0,66,0.00,,SKC,0.00,VWS V14.01,2013-01-25 12:00:00,
2013-01-25 05:04:00,57.7,46.4,30.08,SE,128,0.0,3.0,66,0.00,,SKC,0.00,VWS V14.01,2013-01-25 12:04:00,
2013-01-25 05:09:00,57.5,46.2,30.08,SE,128,1.0,3.0,66,0.00,,SKC,0.00,VWS V14.01,2013-01-25 12:09:00,
2013-01-25 05:14:00,57.2,46.0,30.08,SE,128,0.0,3.0,66,0.00,,SKC,0.00,VWS V14.01,2013-01-25 12:14:00,
2013-01-25 05:15:00,57.1,45.9,30.08,SE,128,0.0,3.0,66,0.00,,SKC,0.00,VWS V14.01,2013-01-25 12:15:00,
2013-01-25 05:19:00,57.1,45.9,30.08,SE,128,0.0,0.0,66,0.00,,SKC,0.00,VWS V14.01,2013-01-25 12:19:00,
2013-01-25 05:24:00,56.9,46.1,30.08,SE,128,0.0,0.0,67,0.00,,SKC,0.00,VWS V14.01,2013-01-25 12:24:00,
2013-01-25 05:29:00,56.5,46.1,30.09,SE,128,0.0,1.0,68,0.00,,SKC,0.00,VWS V14.01,2013-01-25 12:29:00,
2013-01-25 05:30:00,55.9,45.9,30.09,SE,128,0.0,1.0,69,0.00,,SKC,0.00,VWS V14.01,2013-01-25 12:30:00,
2013-01-25 05:34:00,55.5,45.9,30.09,SE,128,0.0,2.0,70,0.00,,SKC,0.00,VWS V14.01,2013-01-25 12:34:00,
2013-01-25 05:39:00,54.7,45.9,30.09,SE,130,0.0,4.0,72,0.00,,SKC,0.00,VWS V14.01,2013-01-25 12:39:00,
2013-01-25 05:44:00,54.3,45.8,30.10,SE,130,0.0,4.0,73,0.00,,SKC,0.00,VWS V14.01,2013-01-25 12:44:00,
2013-01-25 05:45:00,54.0,45.9,30.10,SE,130,0.0,4.0,74,0.00,,SKC,0.00,VWS V14.01,2013-01-25 12:45:00,
2013-01-25 05:49:00,53.7,45.6,30.10,SE,130,0.0,0.0,74,0.00,,SKC,0.00,VWS V14.01,2013-01-25 12:49:00,
2013-01-25 05:54:00,53.3,45.6,30.10,SE,130,0.0,0.0,75,0.00,,SKC,0.00,VWS V14.01,2013-01-25 12:54:00,
2013-01-25 05:59:00,53.0,45.3,30.10,SE,130,0.0,0.0,75,0.00,,SKC,0.00,VWS V14.01,2013-01-25 12:59:00,
2013-01-25 06:00:00,52.9,45.5,30.10,SE,130,0.0,0.0,76,0.00,,SKC,0.00,VWS V14.01,2013-01-25 13:00:00,
2013-01-25 06:05:00,52.7,45.4,30.10,SE,130,0.0,0.0,76,0.00,,SKC,0.00,VWS V14.01,2013-01-25 13:05:00,
2013-01-25 06:10:00,52.4,45.4,30.10,SE,130,0.0,0.0,77,0.00,,SKC,0.00,VWS V14.01,2013-01-25 13:10:00,
2013-01-25 06:15:00,52.1,45.1,30.10,SE,130,0.0,0.0,77,0.00,,SKC,0.00,VWS V14.01,2013-01-25 13:15:00,
2013-01-25 06:20:00,51.8,45.2,30.10,SE,130,0.0,0.0,78,0.00,,SKC,0.00,VWS V14.01,2013-01-25 13:20:00,
2013-01-25 06:25:00,51.7,45.1,30.11,SE,130,0.0,0.0,78,0.00,,SKC,0.00,VWS V14.01,2013-01-25 13:25:00,
2013-01-25 06:30:00,51.5,45.2,30.10,SE,130,0.0,0.0,79,0.00,,SKC,0.00,VWS V14.01,2013-01-25 13:30:00,
2013-01-25 06:35:00,51.5,45.2,30.11,SE,130,0.0,2.0,79,0.00,,SKC,0.00,VWS V14.01,2013-01-25 13:35:00,
2013-01-25 06:40:00,51.5,45.2,30.11,SE,130,1.0,3.0,79,0.00,,SKC,0.00,VWS V14.01,2013-01-25 13:40:00,
2013-01-25 06:45:00,51.5,44.9,30.11,SE,130,2.0,3.0,78,0.00,,SKC,0.00,VWS V14.01,2013-01-25 13:45:00,
2013-01-25 06:50:00,51.6,45.0,30.11,SE,130,0.0,0.0,78,0.00,,SKC,0.00,VWS V14.01,2013-01-25 13:50:00,
2013-01-25 06:55:00,51.7,44.7,30.11,SE,130,1.0,1.0,77,0.00,,SKC,0.00,VWS V14.01,2013-01-25 13:55:00,
2013-01-25 07:00:00,52.0,44.7,30.11,SE,127,5.0,5.0,76,0.00,,SKC,0.00,VWS V14.01,2013-01-25 14:00:00,
2013-01-25 07:01:00,51.9,44.9,30.11,SE,126,2.0,2.0,77,0.00,,SKC,0.00,VWS V14.01,2013-01-25 14:01:00,
2013-01-25 07:05:00,52.1,44.8,30.11,SE,129,0.0,4.0,76,0.00,,SKC,0.00,VWS V14.01,2013-01-25 14:05:00,
2013-01-25 07:11:00,52.2,44.9,30.11,SE,129,0.0,4.0,76,0.00,,SKC,0.00,VWS V14.01,2013-01-25 14:11:00,
2013-01-25 07:15:00,52.3,44.6,30.12,SE,131,0.0,5.0,75,0.00,,SKC,0.00,VWS V14.01,2013-01-25 14:15:00,
2013-01-25 07:16:00,52.3,44.6,30.12,SE,130,0.0,5.0,75,0.00,,SKC,0.00,VWS V14.01,2013-01-25 14:16:00,
2013-01-25 07:21:00,52.2,44.5,30.12,SE,131,0.0,0.0,75,0.00,,SKC,0.00,VWS V14.01,2013-01-25 14:21:00,
2013-01-25 07:26:00,52.2,44.5,30.12,SE,132,1.0,2.0,75,0.00,,SKC,0.00,VWS V14.01,2013-01-25 14:26:00,
2013-01-25 07:30:00,52.3,44.6,30.12,SE,132,0.0,4.0,75,0.00,,SKC,0.00,VWS V14.01,2013-01-25 14:30:00,
2013-01-25 07:31:00,52.3,44.6,30.12,SE,132,0.0,4.0,75,0.00,,SKC,0.00,VWS V14.01,2013-01-25 14:31:00,
2013-01-25 07:36:00,52.4,44.7,30.12,SE,132,0.0,0.0,75,0.00,,SKC,0.00,VWS V14.01,2013-01-25 14:36:00,
2013-01-25 07:41:00,52.6,44.9,30.12,SE,132,0.0,0.0,75,0.00,,SKC,0.00,VWS V14.01,2013-01-25 14:41:00,
2013-01-25 07:45:00,53.0,45.0,30.12,SE,132,0.0,0.0,74,0.00,,SKC,0.00,VWS V14.01,2013-01-25 14:45:00,
2013-01-25 07:46:00,52.9,44.8,30.12,SE,132,0.0,0.0,74,0.00,,SKC,0.00,VWS V14.01,2013-01-25 14:46:00,
2013-01-25 07:51:00,53.1,45.0,30.12,SE,132,0.0,0.0,74,0.00,,SKC,0.00,VWS V14.01,2013-01-25 14:51:00,
2013-01-25 07:57:00,53.1,45.4,30.12,SE,132,0.0,0.0,75,0.00,,SKC,0.00,VWS V14.01,2013-01-25 14:57:00,
2013-01-25 08:00:00,53.1,45.4,30.11,SE,132,0.0,0.0,75,0.00,,SKC,0.00,VWS V14.01,2013-01-25 15:00:00,
2013-01-25 08:02:00,53.1,45.4,30.11,SE,132,0.0,0.0,75,0.00,,SKC,0.00,VWS V14.01,2013-01-25 15:02:00,
2013-01-25 08:07:00,53.1,45.4,30.12,SE,132,0.0,0.0,75,0.00,,SKC,0.00,VWS V14.01,2013-01-25 15:07:00,
2013-01-25 08:12:00,53.1,45.4,30.11,SE,132,0.0,0.0,75,0.00,,SKC,0.00,VWS V14.01,2013-01-25 15:12:00,
2013-01-25 08:15:00,53.1,45.4,30.12,SE,132,0.0,0.0,75,0.00,,SKC,0.00,VWS V14.01,2013-01-25 15:15:00,
2013-01-25 08:17:00,53.1,45.4,30.12,SE,132,0.0,0.0,75,0.00,,SKC,0.00,VWS V14.01,2013-01-25 15:17:00,
2013-01-25 08:22:00,53.2,45.5,30.12,SE,132,0.0,0.0,75,0.00,,SKC,0.00,VWS V14.01,2013-01-25 15:22:00,
2013-01-25 08:27:00,53.4,45.7,30.11,SE,132,0.0,0.0,75,0.00,,SKC,0.00,VWS V14.01,2013-01-25 15:27:00,
2013-01-25 08:30:00,53.5,45.8,30.11,SE,132,0.0,1.0,75,0.00,,SKC,0.00,VWS V14.01,2013-01-25 15:30:00,
2013-01-25 08:32:00,53.5,45.8,30.11,SE,132,0.0,1.0,75,0.00,,SKC,0.00,VWS V14.01,2013-01-25 15:32:00,
2013-01-25 08:37:00,53.5,45.8,30.11,SE,132,0.0,0.0,75,0.00,,SKC,0.00,VWS V14.01,2013-01-25 15:37:00,
2013-01-25 08:42:00,53.6,45.9,30.11,SE,132,2.0,2.0,75,0.00,,SKC,0.00,VWS V14.01,2013-01-25 15:42:00,
2013-01-25 08:45:00,53.9,46.2,30.12,SE,132,0.0,4.0,75,0.00,,SKC,0.00,VWS V14.01,2013-01-25 15:45:00,
2013-01-25 08:47:00,53.9,46.2,30.12,SE,132,0.0,4.0,75,0.00,,SKC,0.00,VWS V14.01,2013-01-25 15:47:00,
2013-01-25 08:52:00,54.1,46.4,30.12,South,179,0.0,5.0,75,0.00,,SKC,0.00,VWS V14.01,2013-01-25 15:52:00,
2013-01-25 08:57:00,54.5,46.4,30.12,South,179,0.0,5.0,74,0.00,,SKC,0.00,VWS V14.01,2013-01-25 15:57:00,
2013-01-25 09:00:00,55.0,46.5,30.12,South,179,4.0,5.0,73,0.00,,SKC,0.00,VWS V14.01,2013-01-25 16:00:00,
2013-01-25 09:02:00,55.0,46.5,30.12,South,179,4.0,5.0,73,0.00,,SKC,0.00,VWS V14.01,2013-01-25 16:02:00,
2013-01-25 09:07:00,55.2,46.3,30.12,South,179,3.0,5.0,72,0.00,,SKC,0.00,VWS V14.01,2013-01-25 16:07:00,
2013-01-25 09:12:00,55.5,46.6,30.12,South,179,0.0,5.0,72,0.00,,SKC,0.00,VWS V14.01,2013-01-25 16:12:00,
2013-01-25 09:15:00,55.7,46.8,30.13,South,179,0.0,5.0,72,0.00,,SKC,0.00,VWS V14.01,2013-01-25 16:15:00,
2013-01-25 09:17:00,55.7,46.8,30.13,South,179,0.0,0.0,72,0.00,,SKC,0.00,VWS V14.01,2013-01-25 16:17:00,
2013-01-25 09:22:00,55.9,46.7,30.13,South,179,0.0,0.0,71,0.00,,SKC,0.00,VWS V14.01,2013-01-25 16:22:00,
2013-01-25 09:27:00,56.2,46.6,30.13,South,179,1.0,4.0,70,0.00,,SKC,0.00,VWS V14.01,2013-01-25 16:27:00,
2013-01-25 09:30:00,56.7,47.0,30.13,South,179,0.0,4.0,70,0.00,,SKC,0.00,VWS V14.01,2013-01-25 16:30:00,
2013-01-25 09:33:00,56.8,47.1,30.13,South,179,0.0,0.0,70,0.00,,SKC,0.00,VWS V14.01,2013-01-25 16:33:00,
2013-01-25 09:38:00,57.3,47.2,30.13,South,179,0.0,3.0,69,0.00,,SKC,0.00,VWS V14.01,2013-01-25 16:38:00,
2013-01-25 09:43:00,57.8,47.7,30.13,South,179,0.0,3.0,69,0.00,,SKC,0.00,VWS V14.01,2013-01-25 16:43:00,
2013-01-25 09:45:00,58.5,47.6,30.13,South,179,0.0,3.0,67,0.00,,SKC,0.00,VWS V14.01,2013-01-25 16:45:00,
2013-01-25 09:48:00,58.6,47.7,30.13,South,179,0.0,0.0,67,0.00,,SKC,0.00,VWS V14.01,2013-01-25 16:48:00,
2013-01-25 09:53:00,59.4,47.7,30.13,South,179,0.0,0.0,65,0.00,,SKC,0.00,VWS V14.01,2013-01-25 16:53:00,
2013-01-25 09:58:00,60.3,48.1,30.13,South,179,0.0,0.0,64,0.00,,SKC,0.00,VWS V14.01,2013-01-25 16:58:00,
2013-01-25 10:00:00,60.9,47.8,30.13,South,178,0.0,0.0,62,0.00,,SKC,0.00,VWS V14.01,2013-01-25 17:00:00,
2013-01-25 10:03:00,60.9,47.4,30.13,South,175,0.0,4.0,61,0.00,,SKC,0.00,VWS V14.01,2013-01-25 17:03:00,
2013-01-25 10:08:00,61.0,47.0,30.12,South,173,0.0,4.0,60,0.00,,SKC,0.00,VWS V14.01,2013-01-25 17:08:00,
2013-01-25 10:13:00,61.4,47.0,30.12,SSE,155,4.0,4.0,59,0.00,,SKC,0.00,VWS V14.01,2013-01-25 17:13:00,
2013-01-25 10:15:00,61.7,46.8,30.12,SSE,151,5.0,5.0,58,0.00,,SKC,0.00,VWS V14.01,2013-01-25 17:15:00,
2013-01-25 10:18:00,61.8,46.9,30.12,SSE,153,4.0,6.0,58,0.00,,SKC,0.00,VWS V14.01,2013-01-25 17:18:00,
2013-01-25 10:23:00,62.5,47.1,30.12,SE,146,4.0,6.0,57,0.00,,SKC,0.00,VWS V14.01,2013-01-25 17:23:00,
2013-01-25 10:28:00,63.3,46.9,30.12,SE,142,5.0,9.0,55,0.00,,SKC,0.00,VWS V14.01,2013-01-25 17:28:00,
2013-01-25 10:30:00,63.7,46.8,30.12,SSE,147,0.0,9.0,54,0.00,,SKC,0.00,VWS V14.01,2013-01-25 17:30:00,
2013-01-25 10:33:00,63.8,46.8,30.12,SSE,148,0.0,0.0,54,0.00,,SKC,0.00,VWS V14.01,2013-01-25 17:33:00,
2013-01-25 10:38:00,64.3,46.8,30.11,SSE,148,0.0,4.0,53,0.00,,SKC,0.00,VWS V14.01,2013-01-25 17:38:00,
2013-01-25 10:43:00,65.2,46.6,30.11,SE,138,5.0,6.0,51,0.00,,SKC,0.00,VWS V14.01,2013-01-25 17:43:00,
2013-01-25 10:45:00,65.7,46.6,30.11,SSE,155,2.0,6.0,50,0.00,,SKC,0.00,VWS V14.01,2013-01-25 17:45:00,
2013-01-25 10:48:00,65.8,46.7,30.11,SE,139,4.0,4.0,50,0.00,,SKC,0.00,VWS V14.01,2013-01-25 17:48:00,
2013-01-25 10:53:00,66.2,46.5,30.11,SE,145,0.0,6.0,49,0.00,,SKC,0.00,VWS V14.01,2013-01-25 17:53:00,
2013-01-25 10:58:00,66.5,46.2,30.11,SSE,167,1.0,8.0,48,0.00,,SKC,0.00,VWS V14.01,2013-01-25 17:58:00,
2013-01-25 11:00:00,66.7,45.8,30.11,SE,134,5.0,8.0,47,0.00,,SKC,0.00,VWS V14.01,2013-01-25 18:00:00,
2013-01-25 11:04:00,66.9,46.0,30.11,SE,138,3.0,6.0,47,0.00,,SKC,0.00,VWS V14.01,2013-01-25 18:04:00,
2013-01-25 11:09:00,67.3,47.0,30.11,South,188,5.0,6.0,48,0.00,,SKC,0.00,VWS V14.01,2013-01-25 18:09:00,
2013-01-25 11:14:00,68.0,47.0,30.11,SSE,160,1.0,6.0,47,0.00,,SKC,0.00,VWS V14.01,2013-01-25 18:14:00,
2013-01-25 11:15:00,68.3,46.7,30.11,SE,134,0.0,6.0,46,0.01,,SKC,0.01,VWS V14.01,2013-01-25 18:15:00,
2013-01-25 11:19:00,68.4,46.8,30.11,SE,134,0.0,0.0,46,0.01,,SKC,0.01,VWS V14.01,2013-01-25 18:19:00,
2013-01-25 11:24:00,68.4,46.8,30.11,South,191,1.0,4.0,46,0.01,,SKC,0.01,VWS V14.01,2013-01-25 18:24:00,
2013-01-25 11:29:00,68.7,47.1,30.11,SSW,210,0.0,6.0,46,0.01,,SKC,0.01,VWS V14.01,2013-01-25 18:29:00,
2013-01-25 11:30:00,69.3,47.7,30.10,SSW,194,0.0,6.0,46,0.01,,SKC,0.01,VWS V14.01,2013-01-25 18:30:00,
2013-01-25 11:34:00,69.5,46.7,30.10,South,171,3.0,3.0,44,0.01,,SKC,0.01,VWS V14.01,2013-01-25 18:34:00,
2013-01-25 11:39:00,69.8,46.3,30.10,SSE,161,1.0,5.0,43,0.01,,SKC,0.01,VWS V14.01,2013-01-25 18:39:00,
2013-01-25 11:44:00,69.9,46.4,30.10,South,181,2.0,5.0,43,0.01,,SKC,0.01,VWS V14.01,2013-01-25 18:44:00,
2013-01-25 11:45:00,69.8,46.3,30.10,SE,146,1.0,5.0,43,0.01,,SKC,0.01,VWS V14.01,2013-01-25 18:45:00,
2013-01-25 11:49:00,69.7,46.2,30.10,South,182,2.0,6.0,43,0.01,,SKC,0.01,VWS V14.01,2013-01-25 18:49:00,
2013-01-25 11:54:00,69.5,46.0,30.10,South,188,0.0,6.0,43,0.01,,SKC,0.01,VWS V14.01,2013-01-25 18:54:00,
2013-01-25 12:00:00,69.9,45.8,30.09,SSE,165,0.0,6.0,42,0.01,,SKC,0.01,VWS V14.01,2013-01-25 19:00:00,
2013-01-25 12:05:00,70.3,46.2,30.09,SE,130,2.0,4.0,42,0.01,,SKC,0.01,VWS V14.01,2013-01-25 19:05:00,
2013-01-25 12:10:00,70.7,45.9,30.08,SE,144,0.0,4.0,41,0.01,,SKC,0.01,VWS V14.01,2013-01-25 19:10:00,
2013-01-25 12:15:00,71.1,48.1,30.08,SE,129,0.0,4.0,44,0.01,,SKC,0.01,VWS V14.01,2013-01-25 19:15:00,
2013-01-25 12:20:00,71.2,48.2,30.08,NNE,20,1.0,4.0,44,0.00,,SKC,0.01,VWS V14.01,2013-01-25 19:20:00,
2013-01-25 12:25:00,71.1,48.1,30.07,NNE,15,0.0,4.0,44,0.00,,SKC,0.01,VWS V14.01,2013-01-25 19:25:00,
2013-01-25 12:30:00,71.3,47.7,30.07,NNE,24,4.0,4.0,43,0.00,,SKC,0.01,VWS V14.01,2013-01-25 19:30:00,
2013-01-25 12:35:00,71.4,48.4,30.06,NE,55,0.0,3.0,44,0.00,,SKC,0.01,VWS V14.01,2013-01-25 19:35:00,
2013-01-25 12:40:00,71.4,48.4,30.06,NE,55,0.0,3.0,44,0.00,,SKC,0.01,VWS V14.01,2013-01-25 19:40:00,
2013-01-25 12:45:00,71.7,48.0,30.05,NE,48,0.0,3.0,43,0.00,,SKC,0.01,VWS V14.01,2013-01-25 19:45:00,
2013-01-25 12:50:00,72.1,47.8,30.04,NE,48,0.0,0.0,42,0.00,,SKC,0.01,VWS V14.01,2013-01-25 19:50:00,
2013-01-25 12:55:00,72.4,48.0,30.04,NE,48,0.0,0.0,42,0.00,,SKC,0.01,VWS V14.01,2013-01-25 19:55:00,
2013-01-25 13:00:00,72.3,47.3,30.03,NE,47,0.0,1.0,41,0.00,,SKC,0.01,VWS V14.01,2013-01-25 20:00:00,
2013-01-25 13:05:00,72.2,47.2,30.03,NE,51,0.0,0.0,41,0.00,,SKC,0.01,VWS V14.01,2013-01-25 20:05:00,
2013-01-25 13:11:00,72.3,47.3,30.02,NE,50,0.0,0.0,41,0.00,,SKC,0.01,VWS V14.01,2013-01-25 20:11:00,
2013-01-25 13:15:00,72.9,47.2,30.02,NE,54,0.0,1.0,40,0.00,,SKC,0.01,VWS V14.01,2013-01-25 20:15:00,
2013-01-25 13:16:00,72.7,47.7,30.02,NE,55,0.0,1.0,41,0.00,,SKC,0.01,VWS V14.01,2013-01-25 20:16:00,
2013-01-25 13:21:00,73.6,47.1,30.02,NE,54,0.0,0.0,39,0.00,,SKC,0.01,VWS V14.01,2013-01-25 20:21:00,
2013-01-25 13:26:00,74.8,47.5,30.02,South,169,3.0,3.0,38,0.00,,SKC,0.01,VWS V14.01,2013-01-25 20:26:00,
2013-01-25 13:30:00,74.7,47.4,30.01,SW,227,0.0,3.0,38,0.00,,SKC,0.01,VWS V14.01,2013-01-25 20:30:00,
2013-01-25 13:31:00,74.7,47.4,30.01,SW,227,0.0,3.0,38,0.00,,SKC,0.01,VWS V14.01,2013-01-25 20:31:00,
2013-01-25 13:36:00,74.8,46.8,30.01,SW,234,0.0,0.0,37,0.00,,SKC,0.01,VWS V14.01,2013-01-25 20:36:00,
2013-01-25 13:41:00,75.6,46.8,30.01,WSW,253,0.0,3.0,36,0.00,,SKC,0.01,VWS V14.01,2013-01-25 20:41:00,
2013-01-25 13:45:00,76.2,47.3,30.00,West,264,0.0,3.0,36,0.00,,SKC,0.01,VWS V14.01,2013-01-25 20:45:00,
2013-01-25 13:46:00,76.1,47.2,30.00,West,264,0.0,3.0,36,0.00,,SKC,0.01,VWS V14.01,2013-01-25 20:46:00,
2013-01-25 13:51:00,76.5,47.6,30.00,NW,325,2.0,4.0,36,0.00,,SKC,0.01,VWS V14.01,2013-01-25 20:51:00,
2013-01-25 13:56:00,75.9,47.1,29.99,NW,307,0.0,4.0,36,0.00,,SKC,0.01,VWS V14.01,2013-01-25 20:56:00,
2013-01-25 14:00:00,75.9,47.1,29.99,NW,315,0.0,4.0,36,0.00,,SKC,0.01,VWS V14.01,2013-01-25 21:00:00,
2013-01-25 14:01:00,75.9,47.1,29.99,NW,314,0.0,4.0,36,0.00,,SKC,0.01,VWS V14.01,2013-01-25 21:01:00,
2013-01-25 14:07:00,75.8,46.2,29.99,NW,317,0.0,1.0,35,0.00,,SKC,0.01,VWS V14.01,2013-01-25 21:07:00,
2013-01-25 14:12:00,75.8,47.0,29.98,NW,317,0.0,1.0,36,0.00,,SKC,0.01,VWS V14.01,2013-01-25 21:12:00,
2013-01-25 14:15:00,76.1,46.5,29.98,SW,215,0.0,1.0,35,0.00,,SKC,0.01,VWS V14.01,2013-01-25 21:15:00,
2013-01-25 14:17:00,76.1,46.5,29.98,SW,217,0.0,1.0,35,0.00,,SKC,0.01,VWS V14.01,2013-01-25 21:17:00,
2013-01-25 14:22:00,76.1,46.5,29.98,SSW,203,0.0,1.0,35,0.00,,SKC,0.01,VWS V14.01,2013-01-25 21:22:00,
2013-01-25 14:27:00,76.1,46.5,29.98,SSW,204,0.0,1.0,35,0.00,,SKC,0.01,VWS V14.01,2013-01-25 21:27:00,
2013-01-25 14:30:00,76.7,46.2,29.98,NNW,327,0.0,3.0,34,0.00,,SKC,0.01,VWS V14.01,2013-01-25 21:30:00,
2013-01-25 14:32:00,76.7,46.2,29.98,NNW,327,0.0,3.0,34,0.00,,SKC,0.01,VWS V14.01,2013-01-25 21:32:00,
2013-01-25 14:37:00,77.5,46.2,29.97,NNW,327,0.0,1.0,33,0.00,,SKC,0.01,VWS V14.01,2013-01-25 21:37:00,
2013-01-25 14:42:00,77.6,47.0,29.97,NNW,327,0.0,2.0,34,0.00,,SKC,0.01,VWS V14.01,2013-01-25 21:42:00,
2013-01-25 14:45:00,78.2,47.6,29.97,NNW,327,0.0,2.0,34,0.00,,SKC,0.01,VWS V14.01,2013-01-25 21:45:00,
2013-01-25 14:47:00,78.2,47.6,29.97,NNW,327,0.0,0.0,34,0.00,,SKC,0.01,VWS V14.01,2013-01-25 21:47:00,
2013-01-25 14:52:00,78.7,46.4,29.97,NNW,327,0.0,2.0,32,0.00,,SKC,0.01,VWS V14.01,2013-01-25 21:52:00,
2013-01-25 14:57:00,78.3,46.9,29.96,SSW,213,0.0,5.0,33,0.00,,SKC,0.01,VWS V14.01,2013-01-25 21:57:00,
2013-01-25 15:00:00,77.8,46.4,29.96,South,190,0.0,5.0,33,0.00,,SKC,0.01,VWS V14.01,2013-01-25 22:00:00,
2013-01-25 15:02:00,77.7,46.3,29.96,South,188,0.0,0.0,33,0.00,,SKC,0.01,VWS V14.01,2013-01-25 22:02:00,
2013-01-25 15:07:00,77.7,46.3,29.97,WSW,250,1.0,2.0,33,0.00,,SKC,0.01,VWS V14.01,2013-01-25 22:07:00,
2013-01-25 15:13:00,78.3,46.9,29.97,WSW,250,0.0,3.0,33,0.00,,SKC,0.01,VWS V14.01,2013-01-25 22:13:00,
2013-01-25 15:15:00,78.3,46.9,29.96,WSW,256,0.0,3.0,33,0.00,,SKC,0.01,VWS V14.01,2013-01-25 22:15:00,
2013-01-25 15:18:00,78.2,46.8,29.96,WSW,256,0.0,0.0,33,0.00,,SKC,0.01,VWS V14.01,2013-01-25 22:18:00,
2013-01-25 15:23:00,78.4,47.0,29.96,WSW,256,0.0,0.0,33,0.00,,SKC,0.01,VWS V14.01,2013-01-25 22:23:00,
2013-01-25 15:28:00,78.5,47.0,29.96,West,259,0.0,2.0,33,0.00,,SKC,0.01,VWS V14.01,2013-01-25 22:28:00,
2013-01-25 15:30:00,78.5,47.0,29.96,West,259,0.0,2.0,33,0.00,,SKC,0.01,VWS V14.01,2013-01-25 22:30:00,
2013-01-25 15:33:00,78.5,47.0,29.96,West,259,0.0,0.0,33,0.00,,SKC,0.01,VWS V14.01,2013-01-25 22:33:00,
2013-01-25 15:38:00,78.3,48.4,29.95,NNW,336,1.0,4.0,35,0.00,,SKC,0.01,VWS V14.01,2013-01-25 22:38:00,
2013-01-25 15:43:00,77.6,49.3,29.95,NNW,330,0.0,7.0,37,0.00,,SKC,0.01,VWS V14.01,2013-01-25 22:43:00,
2013-01-25 15:45:00,76.9,48.7,29.96,NW,317,0.0,7.0,37,0.00,,SKC,0.01,VWS V14.01,2013-01-25 22:45:00,
2013-01-25 15:48:00,76.7,49.2,29.96,North,350,3.0,5.0,38,0.00,,SKC,0.01,VWS V14.01,2013-01-25 22:48:00,
2013-01-25 15:53:00,76.0,49.3,29.95,NW,325,1.0,5.0,39,0.00,,SKC,0.01,VWS V14.01,2013-01-25 22:53:00,
2013-01-25 15:59:00,75.4,49.4,29.95,NNW,340,2.0,5.0,40,0.00,,SKC,0.01,VWS V14.01,2013-01-25 22:59:00,
2013-01-25 16:00:00,75.0,49.1,29.95,NW,321,4.0,5.0,40,0.00,,SKC,0.01,VWS V14.01,2013-01-25 23:00:00,
2013-01-25 16:04:00,74.8,48.9,29.95,NW,325,0.0,4.0,40,0.00,,SKC,0.01,VWS V14.01,2013-01-25 23:04:00,
2013-01-25 16:09:00,74.6,48.7,29.95,NW,326,5.0,5.0,40,0.00,,SKC,0.01,VWS V14.01,2013-01-25 23:09:00,
2013-01-25 16:14:00,74.3,48.4,29.95,NW,325,1.0,5.0,40,0.00,,SKC,0.01,VWS V14.01,2013-01-25 23:14:00,
2013-01-25 16:15:00,74.1,48.3,29.94,NW,324,0.0,5.0,40,0.00,,SKC,0.01,VWS V14.01,2013-01-25 23:15:00,
2013-01-25 16:19:00,73.9,48.7,29.94,NNW,331,1.0,1.0,41,0.00,,SKC,0.01,VWS V14.01,2013-01-25 23:19:00,
2013-01-25 16:24:00,73.7,47.9,29.94,North,360,3.0,5.0,40,0.00,,SKC,0.01,VWS V14.01,2013-01-25 23:24:00,
2013-01-25 16:29:00,73.5,48.4,29.94,NNW,335,0.0,5.0,41,0.00,,SKC,0.01,VWS V14.01,2013-01-25 23:29:00,
2013-01-25 16:30:00,73.4,48.3,29.94,NNW,335,0.0,5.0,41,0.00,,SKC,0.01,VWS V14.01,2013-01-25 23:30:00,
2013-01-25 16:34:00,73.3,48.2,29.94,NNW,329,0.0,2.0,41,0.00,,SKC,0.01,VWS V14.01,2013-01-25 23:34:00,
2013-01-25 16:39:00,73.1,48.0,29.94,NNW,329,0.0,4.0,41,0.00,,SKC,0.01,VWS V14.01,2013-01-25 23:39:00,
2013-01-25 16:44:00,72.8,47.8,29.93,NNW,330,0.0,4.0,41,0.00,,SKC,0.01,VWS V14.01,2013-01-25 23:44:00,
2013-01-25 16:45:00,72.7,47.7,29.94,NNW,343,0.0,4.0,41,0.00,,SKC,0.01,VWS V14.01,2013-01-25 23:45:00,
2013-01-25 16:49:00,72.6,48.2,29.94,NNW,344,0.0,2.0,42,0.00,,SKC,0.01,VWS V14.01,2013-01-25 23:49:00,
2013-01-25 16:54:00,72.5,48.1,29.94,North,349,0.0,2.0,42,0.00,,SKC,0.01,VWS V14.01,2013-01-25 23:54:00,
2013-01-25 16:59:00,72.3,48.0,29.94,NW,323,1.0,6.0,42,0.00,,SKC,0.01,VWS V14.01,2013-01-25 23:59:00,
2013-01-25 17:00:00,72.2,47.9,29.93,NW,325,0.0,6.0,42,0.00,,SKC,0.01,VWS V14.01,2013-01-26 00:00:00,
2013-01-25 17:05:00,72.1,47.8,29.93,NW,326,1.0,1.0,42,0.00,,SKC,0.01,VWS V14.01,2013-01-26 00:05:00,
2013-01-25 17:10:00,71.8,47.5,29.93,NW,318,0.0,6.0,42,0.00,,SKC,0.01,VWS V14.01,2013-01-26 00:10:00,
2013-01-25 17:15:00,71.5,47.2,29.93,NNW,330,0.0,7.0,42,0.00,,SKC,0.01,VWS V14.01,2013-01-26 00:15:00,
2013-01-25 17:20:00,71.3,47.7,29.94,NNW,330,0.0,2.0,43,0.00,,SKC,0.01,VWS V14.01,2013-01-26 00:20:00,
2013-01-25 17:25:00,71.1,47.5,29.94,NW,314,1.0,3.0,43,0.00,,SKC,0.01,VWS V14.01,2013-01-26 00:25:00,
2013-01-25 17:30:00,70.9,47.3,29.94,NW,319,2.0,4.0,43,0.00,,SKC,0.01,VWS V14.01,2013-01-26 00:30:00,
2013-01-25 17:35:00,70.7,47.1,29.93,NW,326,3.0,3.0,43,0.00,,SKC,0.01,VWS V14.01,2013-01-26 00:35:00,
2013-01-25 17:40:00,70.5,47.0,29.93,North,355,1.0,3.0,43,0.00,,SKC,0.01,VWS V14.01,2013-01-26 00:40:00,
2013-01-25 17:45:00,70.2,47.3,29.93,North,355,0.0,3.0,44,0.00,,SKC,0.01,VWS V14.01,2013-01-26 00:45:00,
2013-01-25 17:50:00,69.8,47.5,29.93,North,355,0.0,2.0,45,0.00,,SKC,0.01,VWS V14.01,2013-01-26 00:50:00,
2013-01-25 17:55:00,69.5,47.2,29.93,North,350,0.0,2.0,45,0.00,,SKC,0.01,VWS V14.01,2013-01-26 00:55:00,
2013-01-25 18:00:00,69.2,47.6,29.93,North,350,0.0,2.0,46,0.00,,SKC,0.01,VWS V14.01,2013-01-26 01:00:00,
2013-01-25 18:01:00,69.2,47.6,29.93,North,351,0.0,2.0,46,0.00,,SKC,0.01,VWS V14.01,2013-01-26 01:01:00,
2013-01-25 18:06:00,69.0,47.4,29.93,North,351,0.0,0.0,46,0.00,,SKC,0.01,VWS V14.01,2013-01-26 01:06:00,
2013-01-25 18:11:00,68.7,47.7,29.93,North,350,0.0,0.0,47,0.00,,SKC,0.01,VWS V14.01,2013-01-26 01:11:00,
2013-01-25 18:15:00,68.4,47.4,29.93,North,351,0.0,0.0,47,0.00,,SKC,0.01,VWS V14.01,2013-01-26 01:15:00,
2013-01-25 18:16:00,68.4,47.4,29.93,North,351,0.0,0.0,47,0.00,,SKC,0.01,VWS V14.01,2013-01-26 01:16:00,
2013-01-25 18:21:00,68.2,47.8,29.93,North,350,0.0,0.0,48,0.00,,SKC,0.01,VWS V14.01,2013-01-26 01:21:00,
2013-01-25 18:26:00,68.0,48.2,29.93,North,351,0.0,0.0,49,0.00,,SKC,0.01,VWS V14.01,2013-01-26 01:26:00,
2013-01-25 18:30:00,67.6,47.8,29.93,North,350,0.0,0.0,49,0.00,,SKC,0.01,VWS V14.01,2013-01-26 01:30:00,
2013-01-25 18:31:00,67.7,47.9,29.93,North,350,0.0,0.0,49,0.00,,SKC,0.01,VWS V14.01,2013-01-26 01:31:00,
2013-01-25 18:36:00,67.4,48.1,29.94,North,351,0.0,0.0,50,0.00,,SKC,0.01,VWS V14.01,2013-01-26 01:36:00,
2013-01-25 18:41:00,67.1,47.9,29.93,North,350,0.0,0.0,50,0.00,,SKC,0.01,VWS V14.01,2013-01-26 01:41:00,
2013-01-25 18:45:00,66.7,48.0,29.94,North,350,0.0,0.0,51,0.00,,SKC,0.01,VWS V14.01,2013-01-26 01:45:00,
2013-01-25 18:46:00,66.8,48.1,29.93,North,351,0.0,0.0,51,0.00,,SKC,0.01,VWS V14.01,2013-01-26 01:46:00,
2013-01-25 18:51:00,66.6,48.4,29.93,North,351,0.0,0.0,52,0.00,,SKC,0.01,VWS V14.01,2013-01-26 01:51:00,
2013-01-25 18:56:00,66.4,48.3,29.93,North,351,0.0,0.0,52,0.00,,SKC,0.01,VWS V14.01,2013-01-26 01:56:00,
2013-01-25 19:00:00,66.2,48.6,29.93,North,351,0.0,0.0,53,0.00,,SKC,0.01,VWS V14.01,2013-01-26 02:00:00,
2013-01-25 19:01:00,66.3,48.7,29.93,North,350,0.0,0.0,53,0.00,,SKC,0.01,VWS V14.01,2013-01-26 02:01:00,
2013-01-25 19:06:00,66.0,48.4,29.94,North,351,0.0,0.0,53,0.00,,SKC,0.01,VWS V14.01,2013-01-26 02:06:00,
2013-01-25 19:11:00,65.7,48.6,29.94,North,350,0.0,0.0,54,0.00,,SKC,0.01,VWS V14.01,2013-01-26 02:11:00,
2013-01-25 19:15:00,65.5,48.4,29.94,NNE,27,0.0,0.0,54,0.00,,SKC,0.01,VWS V14.01,2013-01-26 02:15:00,
2013-01-25 19:17:00,65.5,48.4,29.94,NNE,32,0.0,0.0,54,0.00,,SKC,0.01,VWS V14.01,2013-01-26 02:17:00,
2013-01-25 19:22:00,65.3,48.7,29.94,NNE,14,0.0,0.0,55,0.00,,SKC,0.01,VWS V14.01,2013-01-26 02:22:00,
2013-01-25 19:27:00,65.0,48.9,29.93,NNE,14,0.0,0.0,56,0.00,,SKC,0.01,VWS V14.01,2013-01-26 02:27:00,
2013-01-25 19:30:00,64.6,48.6,29.93,NNE,14,0.0,0.0,56,0.00,,SKC,0.01,VWS V14.01,2013-01-26 02:30:00,
2013-01-25 19:32:00,64.6,48.6,29.93,NNE,14,0.0,0.0,56,0.00,,SKC,0.01,VWS V14.01,2013-01-26 02:32:00,
2013-01-25 19:37:00,64.4,47.9,29.93,NNE,14,0.0,0.0,55,0.00,,SKC,0.01,VWS V14.01,2013-01-26 02:37:00,
2013-01-25 19:42:00,64.3,47.8,29.93,NNE,14,0.0,0.0,55,0.00,,SKC,0.01,VWS V14.01,2013-01-26 02:42:00,
2013-01-25 19:45:00,64.3,47.3,29.94,NNE,14,0.0,1.0,54,0.00,,SKC,0.01,VWS V14.01,2013-01-26 02:45:00,
2013-01-25 19:47:00,64.3,47.3,29.94,NNE,14,0.0,1.0,54,0.00,,SKC,0.01,VWS V14.01,2013-01-26 02:47:00,
2013-01-25 19:52:00,64.3,47.3,29.94,NNE,14,0.0,0.0,54,0.00,,SKC,0.01,VWS V14.01,2013-01-26 02:52:00,
2013-01-25 19:57:00,64.3,47.3,29.94,NNE,14,0.0,0.0,54,0.00,,SKC,0.01,VWS V14.01,2013-01-26 02:57:00,
2013-01-25 20:00:00,64.2,47.2,29.94,NNE,14,0.0,0.0,54,0.00,,SKC,0.01,VWS V14.01,2013-01-26 03:00:00,
2013-01-25 20:02:00,64.2,47.2,29.94,NNE,14,0.0,0.0,54,0.00,,SKC,0.01,VWS V14.01,2013-01-26 03:02:00,
2013-01-25 20:07:00,64.0,48.0,29.94,NNE,13,0.0,0.0,56,0.00,,SKC,0.01,VWS V14.01,2013-01-26 03:07:00,
2013-01-25 20:12:00,63.6,48.1,29.94,NNE,13,0.0,0.0,57,0.00,,SKC,0.01,VWS V14.01,2013-01-26 03:12:00,
2013-01-25 20:15:00,63.3,48.3,29.94,NNE,14,0.0,1.0,58,0.00,,SKC,0.01,VWS V14.01,2013-01-26 03:15:00,
2013-01-25 20:17:00,63.3,48.3,29.94,NNE,13,0.0,0.0,58,0.00,,SKC,0.01,VWS V14.01,2013-01-26 03:17:00,
2013-01-25 20:22:00,63.2,47.3,29.94,SW,219,0.0,2.0,56,0.00,,SKC,0.01,VWS V14.01,2013-01-26 03:22:00,
2013-01-25 20:27:00,63.3,46.9,29.94,SW,219,0.0,2.0,55,0.00,,SKC,0.01,VWS V14.01,2013-01-26 03:27:00,
2013-01-25 20:30:00,63.3,46.9,29.94,West,277,0.0,2.0,55,0.00,,SKC,0.01,VWS V14.01,2013-01-26 03:30:00,
2013-01-25 20:32:00,63.3,46.9,29.94,West,277,0.0,0.0,55,0.00,,SKC,0.01,VWS V14.01,2013-01-26 03:32:00,
2013-01-25 20:38:00,63.2,46.8,29.94,West,261,0.0,2.0,55,0.00,,SKC,0.01,VWS V14.01,2013-01-26 03:38:00,
2013-01-25 20:43:00,63.0,47.1,29.94,West,265,1.0,3.0,56,0.00,,SKC,0.01,VWS V14.01,2013-01-26 03:43:00,
2013-01-25 20:45:00,62.8,47.4,29.94,West,265,0.0,3.0,57,0.00,,SKC,0.01,VWS V14.01,2013-01-26 03:45:00,
2013-01-25 20:48:00,62.8,47.4,29.94,West,265,0.0,0.0,57,0.00,,SKC,0.01,VWS V14.01,2013-01-26 03:48:00,
2013-01-25 20:53:00,62.6,47.2,29.94,West,265,0.0,1.0,57,0.00,,SKC,0.01,VWS V14.01,2013-01-26 03:53:00,
2013-01-25 20:58:00,62.5,47.1,29.95,West,265,0.0,1.0,57,0.00,,SKC,0.01,VWS V14.01,2013-01-26 03:58:00,
2013-01-25 21:00:00,62.6,47.2,29.94,West,265,0.0,1.0,57,0.00,,SKC,0.01,VWS V14.01,2013-01-26 04:00:00,
2013-01-25 21:03:00,62.6,48.1,29.94,West,265,0.0,0.0,59,0.00,,SKC,0.01,VWS V14.01,2013-01-26 04:03:00,
2013-01-25 21:08:00,62.6,47.6,29.94,West,265,0.0,0.0,58,0.00,,SKC,0.01,VWS V14.01,2013-01-26 04:08:00,
2013-01-25 21:13:00,62.5,47.1,29.94,West,265,0.0,0.0,57,0.00,,SKC,0.01,VWS V14.01,2013-01-26 04:13:00,
2013-01-25 21:15:00,62.6,47.6,29.94,West,265,0.0,0.0,58,0.00,,SKC,0.01,VWS V14.01,2013-01-26 04:15:00,
2013-01-25 21:18:00,62.6,47.6,29.94,West,265,0.0,0.0,58,0.00,,SKC,0.01,VWS V14.01,2013-01-26 04:18:00,
2013-01-25 21:23:00,62.5,47.5,29.94,West,265,0.0,0.0,58,0.00,,SKC,0.01,VWS V14.01,2013-01-26 04:23:00,
2013-01-25 21:28:00,62.4,47.9,29.94,West,265,0.0,0.0,59,0.00,,SKC,0.01,VWS V14.01,2013-01-26 04:28:00,
2013-01-25 21:30:00,62.3,47.8,29.94,West,265,0.0,0.0,59,0.00,,SKC,0.01,VWS V14.01,2013-01-26 04:30:00,
2013-01-25 21:33:00,62.2,47.7,29.94,West,265,0.0,0.0,59,0.00,,SKC,0.01,VWS V14.01,2013-01-26 04:33:00,
2013-01-25 21:38:00,62.1,47.6,29.94,West,265,0.0,0.0,59,0.00,,SKC,0.01,VWS V14.01,2013-01-26 04:38:00,
2013-01-25 21:43:00,62.0,48.4,29.94,West,265,0.0,0.0,61,0.00,,SKC,0.01,VWS V14.01,2013-01-26 04:43:00,
2013-01-25 21:45:00,62.0,48.0,29.94,West,265,0.0,0.0,60,0.00,,SKC,0.01,VWS V14.01,2013-01-26 04:45:00,
2013-01-25 21:48:00,62.0,48.0,29.95,West,265,0.0,0.0,60,0.00,,SKC,0.01,VWS V14.01,2013-01-26 04:48:00,
2013-01-25 21:54:00,62.0,47.5,29.94,West,265,0.0,0.0,59,0.00,,SKC,0.01,VWS V14.01,2013-01-26 04:54:00,
2013-01-25 21:59:00,62.0,47.5,29.95,West,265,0.0,0.0,59,0.00,,SKC,0.01,VWS V14.01,2013-01-26 04:59:00,
2013-01-25 22:00:00,62.0,47.5,29.95,West,265,0.0,1.0,59,0.00,,SKC,0.01,VWS V14.01,2013-01-26 05:00:00,
2013-01-25 22:01:00,62.0,47.5,29.95,West,264,1.0,1.0,59,0.00,,SKC,0.01,VWS V14.01,2013-01-26 05:01:00,
2013-01-25 22:03:00,62.0,47.5,29.95,West,265,0.0,0.0,59,0.00,,SKC,0.01,VWS V14.01,2013-01-26 05:03:00,
2013-01-25 22:06:00,62.1,48.1,29.95,West,265,0.0,0.0,60,0.00,,SKC,0.01,VWS V14.01,2013-01-26 05:06:00,
2013-01-25 22:11:00,61.9,48.3,29.94,West,265,0.0,0.0,61,0.00,,SKC,0.01,VWS V14.01,2013-01-26 05:11:00,
2013-01-25 22:15:00,61.7,48.1,29.94,SE,131,0.0,0.0,61,0.00,,SKC,0.01,VWS V14.01,2013-01-26 05:15:00,
2013-01-25 22:16:00,61.7,48.1,29.94,SE,131,0.0,0.0,61,0.00,,SKC,0.01,VWS V14.01,2013-01-26 05:16:00,
2013-01-25 22:21:00,61.6,48.0,29.94,SE,131,0.0,0.0,61,0.00,,SKC,0.01,VWS V14.01,2013-01-26 05:21:00,
2013-01-25 22:26:00,61.7,47.7,29.94,SE,131,0.0,0.0,60,0.00,,SKC,0.01,VWS V14.01,2013-01-26 05:26:00,
2013-01-25 22:30:00,61.8,47.3,29.94,SE,131,0.0,0.0,59,0.00,,SKC,0.01,VWS V14.01,2013-01-26 05:30:00,
2013-01-25 22:31:00,61.8,47.3,29.94,SE,131,0.0,0.0,59,0.00,,SKC,0.01,VWS V14.01,2013-01-26 05:31:00,
2013-01-25 22:36:00,61.9,47.4,29.94,SE,131,0.0,0.0,59,0.00,,SKC,0.01,VWS V14.01,2013-01-26 05:36:00,
2013-01-25 22:41:00,62.0,47.5,29.94,SE,131,0.0,0.0,59,0.00,,SKC,0.01,VWS V14.01,2013-01-26 05:41:00,
2013-01-25 22:45:00,62.0,47.5,29.94,SE,130,0.0,0.0,59,0.00,,SKC,0.01,VWS V14.01,2013-01-26 05:45:00,
2013-01-25 22:46:00,62.0,47.5,29.94,SE,130,0.0,0.0,59,0.00,,SKC,0.01,VWS V14.01,2013-01-26 05:46:00,
2013-01-25 22:51:00,62.0,47.5,29.94,SE,130,0.0,0.0,59,0.00,,SKC,0.01,VWS V14.01,2013-01-26 05:51:00,
2013-01-25 22:56:00,62.0,47.5,29.94,SE,131,0.0,0.0,59,0.00,,SKC,0.01,VWS V14.01,2013-01-26 05:56:00,
2013-01-25 23:00:00,62.0,47.5,29.94,SE,131,0.0,0.0,59,0.00,,SKC,0.01,VWS V14.01,2013-01-26 06:00:00,
2013-01-25 23:01:00,62.0,47.5,29.94,SE,130,0.0,0.0,59,0.00,,SKC,0.01,VWS V14.01,2013-01-26 06:01:00,
2013-01-25 23:07:00,62.0,47.5,29.94,SE,130,0.0,0.0,59,0.00,,SKC,0.01,VWS V14.01,2013-01-26 06:07:00,
2013-01-25 23:12:00,61.9,47.9,29.94,SE,130,0.0,0.0,60,0.00,,SKC,0.01,VWS V14.01,2013-01-26 06:12:00,
2013-01-25 23:15:00,61.8,47.8,29.94,SE,131,0.0,0.0,60,0.00,,SKC,0.01,VWS V14.01,2013-01-26 06:15:00,
2013-01-25 23:17:00,61.8,47.8,29.94,SE,131,0.0,0.0,60,0.00,,SKC,0.01,VWS V14.01,2013-01-26 06:17:00,
2013-01-25 23:22:00,61.7,48.1,29.94,SE,130,0.0,0.0,61,0.00,,SKC,0.01,VWS V14.01,2013-01-26 06:22:00,
2013-01-25 23:27:00,61.6,48.0,29.94,SE,131,0.0,0.0,61,0.00,,SKC,0.01,VWS V14.01,2013-01-26 06:27:00,
2013-01-25 23:30:00,61.6,47.6,29.94,SE,131,0.0,0.0,60,0.00,,SKC,0.01,VWS V14.01,2013-01-26 06:30:00,
2013-01-25 23:32:00,61.6,47.6,29.94,SE,131,0.0,0.0,60,0.00,,SKC,0.01,VWS V14.01,2013-01-26 06:32:00,
2013-01-25 23:37:00,61.6,48.0,29.94,SE,131,0.0,0.0,61,0.00,,SKC,0.01,VWS V14.01,2013-01-26 06:37:00,
2013-01-25 23:42:00,61.5,47.9,29.93,SE,131,0.0,0.0,61,0.00,,SKC,0.01,VWS V14.01,2013-01-26 06:42:00,
2013-01-25 23:45:00,61.4,47.8,29.93,SE,131,0.0,0.0,61,0.00,,SKC,0.01,VWS V14.01,2013-01-26 06:45:00,
2013-01-25 23:47:00,61.4,47.8,29.93,SE,131,0.0,0.0,61,0.00,,SKC,0.01,VWS V14.01,2013-01-26 06:47:00,
2013-01-25 23:52:00,61.2,47.7,29.93,SE,131,0.0,1.0,61,0.00,,SKC,0.01,VWS V14.01,2013-01-26 06:52:00,
2013-01-25 23:57:00,61.1,47.6,29.93,SE,131,0.0,1.0,61,0.00,,SKC,0.01,VWS V14.01,2013-01-26 06:57:00,